Showing default

METEOR 2-5, 11605

Orbit data source: Space-Track

METEOR 2-5, 11605 is a Commonwealth of Independent States-origin payload satellite in LEO that was launched on Wed, 31 Oct 1979 UTC via a VOSTOK 8A92M launch vehicle from the Plesetsk Missile And Space Complex (PKMTR). Payload-class satellites include a variety of spacecraft equipped with specific instruments for various scientific and technological missions. These include communications satellites like Starlink; space stations such as the ISS; scientific satellites like the Hubble; Earth observation satellites from companies like Planet Labs, Umbra, and HawkEye 360; GPS; miniature CubeSats for education and research; and military/defense satellites.

Loading next visibility...
Identifier
11605, 1979-095A
Orbit
LEO
Country
Flag of CISCIS
Related business
Manufacturer
VNIIEM
Mission
Spacecraft
Bus & Motor
METEOR-2, Unknown motor
Mass
~1,500 kg wet, ~1,500 kg dry
Launch date (UTC)
1979-10-31 (47 years ago)
Launch vehicle
VOSTOK 8A92M
Launch site
Plesetsk Missile And Space Complex (PKMTR)
Object type
Payload
Rocket body
Debris
Shape & HBR
Unknown
Radar Cross Section
Large (>1 m²)

Expand to show TLE details & history
Last TLE update: 12 hours ago

TLE from 12 hours ago
0 METEOR 2-5
1 11605U 79095A   26123.69446161 -.00000089  00000-0 -60292-4 0  9996
2 11605  81.2084 274.6602 0012976  46.2932 313.9310 14.07469138387041
Epoch: 2026-05-03T16:40Z
TLE epoch observation values (Epoch: 2026-05-03T16:40:01.483Z)
Latitude
0.00002°
Longitude
163.05969°
Altitude
864.422 km
Speed
7.424 km/s
True Right ascension
18h 18m 38s
True Declination
0° 00' 00"
Sunlit
Object was in full shadow at epoch
Visualization orbit readout
Latitude
Unknown
Longitude
Unknown
Altitude
Unknown
Speed
Unknown
Apparent Right ascension
Unknown
Apparent Declination
Unknown
Sunlit
N/A
Visualization observer readout
Local Sidereal Time
12:25:05
Azimuth
Unknown
Elevation
Unknown
Doppler factor
Unknown
Orbital elements
Apogee altitude
874.624 km
Perigee altitude
855.826 km
Semi-major axis
7,243.362 km
Eccentricity
0.0013
Inclination
81.2084°
RAAN
274.6602°
Arg. of periapsis
46.2932°
True anomaly
313.82379°
Mean anomaly
313.931°
Eccentric anomaly
313.87741°
Mean motion
3.52073 °/min
Orbital period
102.25 mins
BSTAR
-0.000060292
Loading maneuver chart data...
Computing Atmospheric mass density...

Documentation

Showing up to 5 results
|